Starlink 35462

operational
NORAD ID: 65877 Int'l Des: 2025-223 Owner: SPXS Country: US Constellation: starlink
LEOCIRCULAR

About Starlink 35462

Description loading...

Live Position

Loading 3D Globe...

Upcoming Passes

Altitude History

Altitude vs Time

uPlot chart will show altitude changes over time

Two-Line Element Set

1 65877U 25223Z 26062.70919250 .00057610 00000-0 19389-2 0 9997
2 65877 53.1611 321.6931 0000847 39.3982 320.7080 15.30255208 23297
Epoch: Mar 3, 2026 • Age: 24 hours

Current Status

Altitude 490.3 km
Velocity 7.62 km/s
Sub-Earth Point -44.00°S, 19.49°E
Launch Date Oct 3, 2025
Age 0.4 years
Type internet

Technical Details

Classification Payload
Mass 575.00 kg
Dry Mass 530.00 kg
Total Mass 575.00 kg
Length 0.30 m
Diameter 4.10 m
Span 29.00 m
Shape Box + pan
Manufacturer SPXS
Bus Type Starlink V2MO
Phase Status In Orbit
Owner/State SPXS/US

Large Constellations

Loading constellations...